Location: Adrasan
(36.3319°N, 30.4314°E)
Time: 15:00:19
(UTC+00:00)

Hubble Space Telescope - Visible Passes

Search period start: 19 April 2024 00:00
Search period end: 29 April 2024 00:00
Orbit: 513 x 517 km, 28.5° (Epoch: 19 April)

Date Brightness Start Highest point End Pass type
(mag) Time Alt. Az. Time Alt. Az. Time Alt. Az.
19 Apr 3.0 17:35:49 10° SW 17:37:54 14° SSW 17:40:00 10° SSE visible
20 Apr 3.1 17:18:00 10° SW 17:19:43 12° SSW 17:21:26 10° S visible
21 Apr 3.2 17:00:22 10° SW 17:01:30 11° SSW 17:02:38 10° S visible
